Simultaneous Nadir Overpasses (SNOs) Predictions

Prediction of SNOs between AQUA and NOAA-19 Satellite Orbit:

Table of predicted SNOs for the next 14.0 days since TLE Epoch: 2/3/2012
Index Date (AQUA) Time (AQUA) AQUA Lat,Lon Date (NOAA-19) Time (NOAA-19) NOAA-19 Lat,Lon Distance(km) Time Diff (sec)
1 02/05/2012 07:32:09 46.01, -80.66 02/05/2012 07:30:59 45.97, -80.56 9.50 70
2 02/05/2012 08:19:01 -55.30, 91.04 02/05/2012 08:19:26 -55.30, 91.04 0.14 25
3 02/07/2012 12:16:20 46.49,-151.56 02/07/2012 12:15:38 46.50,-151.55 1.10 42
4 02/07/2012 13:02:27 -58.40, 21.71 02/07/2012 13:03:19 -58.40, 21.72 0.78 52
5 02/09/2012 16:59:38 50.16, 138.83 02/09/2012 16:59:23 50.16, 138.82 0.43 15
6 02/09/2012 17:43:01 -71.18, -37.00 02/09/2012 17:44:15 -71.04, -36.29 29.85 74
7 02/11/2012 21:42:57 53.74, 69.38 02/11/2012 21:43:09 53.74, 69.37 0.50 12
8 02/14/2012 01:40:03 -46.04,-172.62 02/14/2012 01:39:18 -46.02,-172.62 1.19 45
9 02/14/2012 02:26:15 57.33, 0.21 02/14/2012 02:26:54 57.34, 0.23 0.94 39
10 02/16/2012 06:23:20 -49.70, 117.75 02/16/2012 06:23:02 -49.70, 117.73 1.01 18




NCC Satellite Simultaneous Nadir Overpasses (SNOs) Prediction Service
